This is the latest recevied weather packets stored in our database for station/object E23BMY-13. If no packets are shown the sender has not sent any weather packets the latest 10 day(s).
| Time | Temp. | Humidity | Pressure | Rain* | Wind** | Luminosity | Snow |
|---|---|---|---|---|---|---|---|
| 1788525304 | 31.67° C | 67% | 1008.7 hPa | 0 mm | - | - | - |
| 1788525037 | 31.67° C | 67% | 1008.7 hPa | 0 mm | - | - | - |
| 1788524704 | 31.67° C | 66% | 1008.5 hPa | 0 mm | - | - | - |
| 1788524404 | 31.67° C | 66% | 1008.6 hPa | 0 mm | - | - | - |
| 1788524104 | 31.67° C | 65% | 1008.5 hPa | 0 mm | - | - | - |
| 1788523804 | 32.22° C | 65% | 1008.5 hPa | 0 mm | - | - | - |
| 1788523504 | 32.22° C | 65% | 1008.5 hPa | 0 mm | - | - | - |
| 1788523204 | 32.22° C | 66% | 1008.5 hPa | 0 mm | - | - | - |
| 1788522604 | 32.22° C | 66% | 1008.2 hPa | 0 mm | - | - | - |
| 1788522303 | 32.22° C | 66% | 1008.2 hPa | 0 mm | - | - | - |
| 1788522004 | 32.22° C | 66% | 1008.2 hPa | 0 mm | - | - | - |
| 1788521704 | 32.78° C | 65% | 1008 hPa | 0 mm | - | - | - |
| 1788521403 | 32.78° C | 64% | 1007.9 hPa | 0 mm | - | - | - |
| 1788521103 | 32.78° C | 63% | 1007.9 hPa | 0 mm | - | - | - |
| 1788520804 | 33.33° C | 61% | 1007.7 hPa | 0 mm | - | - | - |
| 1788520503 | 33.89° C | 58% | 1007.7 hPa | 0 mm | - | - | - |
| 1788520204 | 33.89° C | 54% | 1007.3 hPa | 0 mm | - | - | - |
| 1788519903 | 33.89° C | 52% | 1007.2 hPa | 0 mm | - | - | - |
| 1788519604 | 33.89° C | 52% | 1007.1 hPa | 0 mm | - | - | - |
| 1788519303 | 34.44° C | 52% | 1007 hPa | 0 mm | - | - | - |
| 1788519004 | 34.44° C | 52% | 1006.9 hPa | 0 mm | - | - | - |
| 1788518703 | 34.44° C | 51% | 1006.8 hPa | 0 mm | - | - | - |
| 1788518403 | 34.44° C | 51% | 1006.6 hPa | 0 mm | - | - | - |
| 1788518104 | 34.44° C | 51% | 1006.6 hPa | 0 mm | - | - | - |
| 1788517803 | 34.44° C | 52% | 1006.5 hPa | 0 mm | - | - | - |
* Rain latest hour (hover to see other rain measurements)
** Current wind speed in m/s (hover to see current wind gust speed)